Weather in Bulun-Terek

Russia / Tyva Republic     51˚28′49″N   92˚15′53″E
temp.,
°C
wind,
m/s
gust,
m/s
humid.,
%
clouds,
%
prec.,
mm/h
press.,
hPa
HPBL,
m
16 january, sat
sat1601:00−29˚nne009429 0.0 105319
04:00−28˚wnw0197100 0.0 105219
07:00−29˚wnw0099100 0.0 105019
10:00−27˚nne0097100 0.0 104936
13:00−25˚e1193100 0.0 1045188
16:00−25˚e1193100 0.0 1044184
19:00−27˚ne1196100 0.0 104219
22:00−28˚e0097100 0.0 104019
17 january, sun
sun1701:00−29˚w1198100 0.0 103822
04:00−29˚wsw119694 0.0 103619
07:00−29˚wsw119786 0.0 103421
10:00−29˚w119892 0.0 103363
13:00−26˚n119596 0.1 1029144
16:00−27˚n0197100 0.0 102740
19:00−28˚nw1199100 0.1 102720
22:00−27˚nne0097100 0.0 102819
18 january, mon
mon1801:00−26˚n019184 0.0 102819
04:00−28˚nne11952 0.0 102819
07:00−29˚nw01962 0.0 102719
10:00−26˚sw119536 0.0 102747
13:00−23˚ese119069 0.0 1024107
16:00−23˚se119465 0.0 102320
19:00−26˚nw119439 0.0 102520
22:00−26˚n12933 0.0 102519
19 january, tue
tue1901:00−27˚wnw11972 0.0 102620
04:00−27˚w11952 0.0 102719
07:00−26˚nw01912 0.0 102820
10:00−25˚wsw019543 0.0 102823
13:00−21˚ne009172 0.0 1026134
16:00−20˚e1194100 0.0 102583
19:00−24˚nw119575 0.0 102720
22:00−24˚nw119283 0.0 102820
20 january, wed
wed2001:00−23˚ssw009091 0.0 102920
04:00−24˚wnw009366 0.0 102920
07:00−24˚sw119347 0.0 102920
10:00−23˚ssw119490 0.0 102920
13:00−19˚se119395 0.0 1026103
16:00−19˚sse1194100 0.0 102595
19:00−21˚nw0096100 0.0 102620
22:00−19˚nne1194100 0.0 102620